Corlu, Turkey

10:47 AM EEST on July 24, 2016 (GMT +0300)
Corlu Air Base

Weather History for LTBU - November, 2012

Change the Weather History Date:

Tuesday, November 27, 2012

  Actual Average (LTBA) Record (LTBA)
Temperature  
Mean Temperature 49 °F -  
Max Temperature 57 °F 55 °F 68 °F (2010)
Min Temperature 41 °F 45 °F 32 °F (2005)
Degree Days  
Heating Degree Days 16    
Moisture  
Dew Point 44 °F    
Average Humidity 89    
Maximum Humidity 100    
Minimum Humidity 63    
Precipitation  
Precipitation 0.00 in - - ()
Sea Level Pressure  
Sea Level Pressure 30.10 in    
Wind  
Wind Speed 4 mph ()    
Max Wind Speed 8 mph    
Max Gust Speed -    
Visibility 4.6 miles    
Events      
Averages and records for this station are not official NWS values.
T = Trace of Precipitation, MM = Missing Value Source: Averaged Metar Reports

Daily Weather History Graph

Daily Weather History Graph

Search for Another Location

Airport or City:

Trip Planner

Search our weather history database for the weather conditions in past years. The results will help you decide how hot, cold, wet, or windy it might be!

Date:

Astronomy

Nov. 27, 2012 Rise Set
Actual Time 7:10 AM EET 4:41 PM EET
Civil Twilight 6:39 AM EET 5:12 PM EET
Nautical Twilight 6:05 AM EET 5:46 PM EET
Astronomical Twilight 5:32 AM EET 6:19 PM EET
Moon 4:00 PM EET (11/27) 5:57 AM EET (11/27)
Length of Visible Light 10h 32m
Length of Day
9h 31m
Waxing Gibbous, 99% of the Moon is Illuminated
Nov 27
Waxing Gibbous
Nov 28
Full
Dec 6
Last Quarter
Dec 13
New
Dec 20
First Quarter

Hourly Weather History & Observations

Time (EET) Temp. Windchill Dew Point Humidity Pressure Visibility Wind Dir Wind Speed Gust Speed Precip Events Conditions
12:20 AM 42.8 °F 40.1 °F 41.0 °F 93% 30.15 in 6.2 mi ENE 4.6 mph - N/A   Scattered Clouds
12:50 AM 41.0 °F 37.1 °F 41.0 °F 100% 30.15 in 6.2 mi NNE 5.8 mph - N/A   Scattered Clouds
1:20 AM 41.0 °F 37.1 °F 41.0 °F 100% 30.15 in 6.2 mi North 5.8 mph - N/A   Scattered Clouds
1:50 AM 41.0 °F 37.1 °F 39.2 °F 93% 30.12 in - North 5.8 mph - N/A   Clear
2:20 AM 41.0 °F 37.1 °F 41.0 °F 100% 30.12 in - North 5.8 mph - N/A   Clear
2:50 AM 41.0 °F 36.4 °F 39.2 °F 93% 30.12 in - NNE 6.9 mph - N/A   Clear
3:20 AM 41.0 °F 37.1 °F 39.2 °F 93% 30.12 in - North 5.8 mph - N/A   Clear
3:50 AM 41.0 °F 36.4 °F 39.2 °F 93% 30.12 in - North 6.9 mph - N/A   Clear
4:20 AM 41.0 °F 37.1 °F 41.0 °F 100% 30.12 in 6.2 mi North 5.8 mph - N/A   Scattered Clouds
4:50 AM 42.8 °F 40.1 °F 41.0 °F 93% 30.12 in 6.2 mi North 4.6 mph - N/A   Mostly Cloudy
5:20 AM 42.8 °F 39.3 °F 41.0 °F 93% 30.09 in 6.2 mi NNE 5.8 mph - N/A   Mostly Cloudy
5:50 AM 42.8 °F 39.3 °F 41.0 °F 93% 30.09 in 6.2 mi NNE 5.8 mph - N/A   Mostly Cloudy
6:20 AM 42.8 °F 41.1 °F 41.0 °F 93% 30.12 in 6.2 mi North 3.5 mph - N/A   Scattered Clouds
6:50 AM 44.6 °F 42.2 °F 42.8 °F 93% 30.12 in 6.2 mi NNE 4.6 mph - N/A   Mostly Cloudy
7:20 AM 44.6 °F 43.1 °F 44.6 °F 100% 30.09 in 6.2 mi ENE 3.5 mph - N/A   Mostly Cloudy
7:50 AM 44.6 °F 43.1 °F 44.6 °F 100% 30.12 in 6.2 mi NE 3.5 mph - N/A   Mostly Cloudy
8:20 AM 46.4 °F 43.5 °F 44.6 °F 93% 30.12 in 6.2 mi NE 5.8 mph - N/A   Mostly Cloudy
8:50 AM 48.2 °F - 46.4 °F 93% 30.12 in 5.0 mi NNE 4.6 mph - N/A   Mostly Cloudy
9:20 AM 48.2 °F - 46.4 °F 93% 30.12 in 5.0 mi NNE 4.6 mph - N/A   Mostly Cloudy
9:50 AM 50.0 °F - 46.4 °F 87% 30.12 in 5.0 mi NNE 3.5 mph - N/A   Mostly Cloudy
10:20 AM 50.0 °F - 46.4 °F 87% 30.12 in 5.0 mi NNE 3.5 mph - N/A   Mostly Cloudy
10:50 AM 53.6 °F - 48.2 °F 82% 30.12 in 5.0 mi Variable 2.3 mph - N/A   Scattered Clouds
11:20 AM 53.6 °F - 46.4 °F 77% 30.12 in 5.0 mi Variable 3.5 mph - N/A   Scattered Clouds
11:50 AM 53.6 °F - 44.6 °F 72% 30.09 in 5.0 mi Variable 4.6 mph - N/A   Scattered Clouds
12:20 PM 55.4 °F - 44.6 °F 67% 30.09 in 5.0 mi WSW 4.6 mph - N/A   Scattered Clouds
12:50 PM 55.4 °F - 46.4 °F 72% 30.09 in 6.2 mi South 6.9 mph - N/A   Scattered Clouds
1:20 PM 55.4 °F - 44.6 °F 67% 30.06 in 6.2 mi South 4.6 mph - N/A   Scattered Clouds
1:50 PM 57.2 °F - 44.6 °F 63% 30.06 in 6.2 mi Variable 3.5 mph - N/A   Scattered Clouds
2:20 PM 55.4 °F - 44.6 °F 67% 30.06 in 6.2 mi SSW 4.6 mph - N/A   Scattered Clouds
2:50 PM 55.4 °F - 46.4 °F 72% 30.06 in 6.2 mi South 4.6 mph - N/A   Scattered Clouds
3:20 PM 53.6 °F - 48.2 °F 82% 30.06 in 5.0 mi SSE 8.1 mph - N/A   Partly Cloudy
3:50 PM 53.6 °F - 48.2 °F 82% 30.06 in 5.0 mi SSE 6.9 mph - N/A   Partly Cloudy
4:20 PM 51.8 °F - 44.6 °F 76% 30.06 in 5.0 mi SSW 5.8 mph - N/A   Partly Cloudy
4:50 PM 48.2 °F - 44.6 °F 87% 30.06 in 3.7 mi SSW 4.6 mph - N/A   Unknown
5:20 PM 48.2 °F - 44.6 °F 87% 30.06 in 3.7 mi SSW 5.8 mph - N/A   Unknown
5:50 PM 46.4 °F 44.3 °F 44.6 °F 93% 30.06 in 3.7 mi SSW 4.6 mph - N/A   Unknown
6:20 PM 46.4 °F - 44.6 °F 93% 30.06 in 3.7 mi Variable 1.2 mph - N/A   Unknown
6:50 PM 46.4 °F - 44.6 °F 93% 30.06 in 3.7 mi Variable 2.3 mph - N/A   Unknown
7:20 PM 42.8 °F - 42.8 °F 100% 30.09 in 1.9 mi SW 2.3 mph - N/A   Mist
7:50 PM 44.6 °F - 42.8 °F 93% 30.09 in 1.9 mi Variable 2.3 mph - N/A   Mist
8:20 PM 44.6 °F - 44.6 °F 100% 30.09 in 1.9 mi Variable 1.2 mph - N/A   Mist
8:50 PM 42.8 °F - 42.8 °F 100% 30.09 in 1.9 mi Variable 1.2 mph - N/A   Mist
9:20 PM 42.8 °F - 42.8 °F 100% 30.09 in 1.9 mi SW 1.2 mph - N/A   Mist
9:50 PM 42.8 °F - 42.8 °F 100% 30.09 in 1.9 mi WSW 2.3 mph - N/A   Mist
10:20 PM 41.0 °F - 41.0 °F 100% 30.09 in 1.9 mi Variable 2.3 mph - N/A   Mist
10:50 PM 44.6 °F - 42.8 °F 93% 30.09 in 1.9 mi Variable 2.3 mph - N/A   Mist
11:20 PM 44.6 °F - 42.8 °F 93% 30.06 in 1.9 mi West 1.2 mph - N/A   Mist
11:50 PM 42.8 °F - 42.8 °F 100% 30.06 in 2.5 mi SW 2.3 mph - N/A   Mist